カタログに戻る

STARLINK-33601

運用中通信VLEO
NORAD 62768·PAYLOAD·🇺🇸 United States

打ち上げ Jan 21, 2025 から Vandenberg Space Force Base

Loading…

次のパス (今後24時間)

TLE

最新Source: CelesTrak SupGP

元期: Sep 14, 2026, 22:53 UTC

1 62768C 25015L   26257.95395833 -.00047130  00000+0 -13923-2 0  2572
2 62768  53.1564 159.4800 0001221  90.3350 241.9056 15.34419295    19

AllMySatでSTARLINK-33601をリアルタイム追跡

Download on the App Store